Date,TemperatureHighF,TemperatureAvgF,TemperatureLowF,DewpointHighF,DewpointAvgF,DewpointLowF,HumidityHigh,HumidityAvg,HumidityLow,PressureMaxIn,PressureMinIn,WindSpeedMaxMPH,WindSpeedAvgMPH,GustSpeedMaxMPH,PrecipitationSumIn
2013-3-1,26.2,25.1,23.4,14.0,12.1,8.4,62,57,52,0.00,0.00,0,0,0,0.00
2013-3-2,26.8,21.9,13.3,8.8,5.4,-0.2,55,49,42,0.00,0.00,0,0,0,0.00
2013-3-3,30.4,19.4,7.9,6.4,0.2,-5.3,55,43,32,0.00,0.00,0,0,0,0.00
2013-3-4,35.1,25.0,11.1,17.1,8.0,-6.1,55,48,41,0.00,0.00,0,0,0,0.00
2013-3-5,32.5,30.5,27.7,24.4,20.6,15.4,79,67,52,0.00,0.00,0,0,0,0.00
2013-3-6,35.2,31.2,27.0,21.6,18.9,16.9,70,60,51,0.00,0.00,0,0,0,0.00
2013-3-7,37.6,31.1,23.7,17.1,13.9,9.1,62,49,39,0.00,0.00,0,0,0,0.00
2013-3-8,40.1,30.2,18.1,21.0,16.2,6.6,65,56,43,30.29,0.00,0,0,0,0.08
2013-3-9,40.6,36.0,31.3,30.1,23.5,17.8,76,60,51,30.18,29.70,0,0,0,0.40
2013-3-10,45.9,40.5,37.4,43.4,36.9,28.9,92,87,71,29.70,29.50,0,0,0,0.88
2013-3-11,39.6,36.5,32.0,37.7,33.0,24.3,93,87,73,29.62,29.41,0,0,0,0.08
2013-3-12,35.1,30.9,27.0,24.0,17.9,12.6,72,59,41,29.85,29.62,0,0,0,0.00
2013-3-13,32.7,26.5,20.5,15.3,6.3,1.9,64,43,31,30.18,29.85,0,0,0,0.00
2013-3-14,38.1,30.3,21.2,22.5,10.8,0.9,67,44,32,30.18,29.94,0,0,0,0.00
2013-3-15,40.1,34.2,31.1,28.5,24.2,18.4,74,67,52,29.94,29.67,0,0,0,0.04
2013-3-16,34.5,30.1,26.2,24.1,16.8,9.4,76,59,41,30.00,29.67,0,0,0,0.00
2013-3-17,33.1,27.3,21.0,15.9,8.3,2.0,56,44,38,30.12,29.91,0,0,0,0.00
2013-3-18,37.0,30.8,20.5,26.3,19.3,3.9,74,62,46,29.91,29.44,0,0,0,0.12
2013-3-19,31.1,22.1,14.5,6.3,2.8,-0.7,52,43,33,29.91,29.59,0,0,0,0.00
2013-3-20,22.3,17.6,11.8,1.4,-3.0,-6.6,43,39,36,29.94,29.88,0,0,0,0.00
2013-3-21,30.6,21.3,12.6,7.1,0.7,-6.2,45,40,35,29.91,29.88,0,0,0,0.00
2013-3-22,36.5,26.7,17.4,10.3,5.8,0.6,48,41,31,29.97,29.88,0,0,0,0.00
2013-3-23,41.5,31.2,22.1,17.4,12.3,7.3,57,46,32,30.03,29.94,0,0,0,0.00
2013-3-24,35.6,33.1,31.3,23.9,18.6,13.6,67,55,47,29.94,29.62,0,0,0,0.00
2013-3-25,36.1,32.1,29.1,21.0,17.6,13.7,67,55,43,29.97,29.65,0,0,0,0.00
2013-3-26,41.7,36.6,31.5,20.3,17.7,16.0,54,46,40,30.12,29.97,0,0,0,0.00
2013-3-27,43.3,37.8,30.9,17.7,14.6,11.6,47,39,30,30.21,30.12,0,0,0,0.00
2013-3-28,46.4,36.5,27.9,17.8,13.9,11.4,53,40,29,30.24,30.18,0,0,0,0.00
2013-3-29,50.0,38.5,26.4,22.5,15.2,12.2,59,40,27,30.21,30.15,0,0,0,0.00
2013-3-30,55.8,43.4,29.5,36.6,23.5,13.1,70,46,32,30.15,29.70,0,0,0,0.00
2013-3-31,52.7,42.7,34.3,37.3,28.8,12.5,81,60,37,29.76,29.59,0,0,0,0.00